Powrót do katalogu

SL-8 R/B

AktywnyLEO
NORAD 12792·ROCKET BODY·🇷🇺 Russia

Wystrzelony Aug 28, 1981 z Plesetsk Cosmodrome

Loading…

Następne Przeloty (najbliższe 24 godziny)

TLE

ŚwieżeSource: Space-Track

Epoka: Sep 14, 2026, 13:27 UTC

1 12792U 81084B   26257.56078547  .00000168  00000-0  62735-4 0  9998
2 12792  74.0282 295.1034 0012297 123.1752 237.0584 14.39085168360049

Śledź SL-8 R/B w czasie rzeczywistym z AllMySat

Download on the App Store